WORLDVIEW-1 (WV-1)

Last updated on Thu Oct 30 2025 00:02:30 GMT+0000 (Coordinated Universal Time)

1 32060U 07041A 25302.28509323 .00012524 00000+0 51179-3 0 9996 2 32060 97.3844 60.3952 0002398 253.5818 106.5157 15.24505600 7704
UTC large
Height (km)
Speed (km/s)
/
Latitude / Longitude
Inclination (degrees)
Orbital Period (minutes)
Azimuth
Elevation
Range (km)
Doppler Factor

Next 0 passes for location: London (51.5072 / 0.1276)

Sorry there are no passes over London.